Location: Miss�
(46.9484°N, 0.1922°W)
Time: 02:43:22
(UTC+00:00)

Cosmos 1302 Rocket - Pass Details

Date: 02 March 2021
Orbit: 756 x 777 km, 74.0° (Epoch: 12 April)

Event Time Altitude Azimuth Distance (km) Brightness Sun altitude
Rises 18:44:55 0° 209° (SSW) 3,199 7.6 -10.5°
Reaches altitude 10° 18:47:17 10° 212° (SSW) 2,279 6.9 -10.9°
Maximum altitude 18:52:25 65° 295° (WNW) 833 4.4 -11.8°
Drops below altitude 10° 18:57:36 10° 17° (NNE) 2,302 6.3 -12.7°
Sets 19:00:01 0° 21° (NNE) 3,235 7.1 -13.1°
